Home   Weather   Hollywood   Past weeks

Flag for USA Past Weather in Hollywood, Florida, USA — Yesterday and Last 2 Weeks

Now
78 °F

Passing clouds.


Feels Like: 81 °F
Forecast: 76 / 84 °F
Wind: 10 mph from South

Location: Fort Lauderdale / Hollywood International Airport

Current Time: Dec 6, 2016 at 7:11:39 am

Latest Report: Dec 6, 2016 at 5:53 am


Visibility: 10 mi

Pressure: 29.95 "Hg

Humidity: 87%

Dew Point: 74 °F

Location of HollywoodLocation

Past Weather in Hollywood — Graph

°F

Hollywood Temperature Yesterday

Maximum temperature yesterday: 82 °F (at 11:53 am)
Minimum temperature yesterday: 77 °F (at 12:53 am)
Average temperature yesterday: 79 °F

High & Low Weather Summary for the Past Weeks

 TemperatureHumidityPressure
High83 °F (Dec 2, 12:53 pm)100% (Dec 1, 8:53 pm)30.21 "Hg (Dec 1, 8:53 pm)
Low57 °F (Nov 21, 5:53 am)29% (Nov 21, 7:53 pm)29.93 "Hg (Dec 1, 2:53 pm)
Average75 °F71%30.05 "Hg
* Reported Nov 21 5:53 am — Dec 6 5:53 am, Hollywood, Weather by CustomWeather, © 2016

Note: Actual official high and low records may vary slightly from our data, if they occured in-between our weather recording intervals... More about our weather records

Advertising

Hollywood Weather History for the Previous 24 Hours

Scroll right to see more
 ConditionsComfort  
Time TempWeatherWind HumidityBarometerVisibility
5:53 am
Tue, Dec 6
78 °FPassing clouds.10 mph87%29.95 "Hg10 mi
5:04 am78 °FPartly cloudy.10 mph87%29.94 "Hg10 mi
4:53 am78 °FPassing clouds.9 mph87%29.94 "Hg10 mi
3:53 am77 °FPassing clouds.8 mph88%29.94 "Hg10 mi
2:53 am77 °FPassing clouds.8 mph88%29.94 "Hg10 mi
1:53 am78 °FPassing clouds.12 mph82%29.94 "Hg10 mi
12:53 am78 °FPassing clouds.12 mph82%29.95 "Hg10 mi
11:53 pm
Mon, Dec 5
78 °FPassing clouds.7 mph82%29.96 "Hg10 mi
10:53 pm78 °FPassing clouds.9 mph82%29.95 "Hg10 mi
9:53 pm78 °FPassing clouds.10 mph84%29.96 "Hg10 mi
8:53 pm79 °FPassing clouds.14 mph82%29.96 "Hg10 mi
7:53 pm78 °FPassing clouds.8 mph82%29.95 "Hg10 mi
6:53 pm78 °FPassing clouds.8 mph82%29.95 "Hg10 mi
5:53 pm79 °FPassing clouds.8 mph77%29.94 "Hg10 mi
4:53 pm80 °FBroken clouds.13 mph76%29.94 "Hg10 mi
3:53 pm80 °FPartly sunny.13 mph74%29.94 "Hg10 mi
3:03 pm80 °FBroken clouds.17 mph76%29.94 "Hg10 mi
2:53 pm81 °FBroken clouds.17 mph74%29.94 "Hg10 mi
1:53 pm81 °FBroken clouds.16 mph74%29.96 "Hg10 mi
12:53 pm81 °FBroken clouds.15 mph74%29.98 "Hg10 mi
11:53 am82 °FPartly sunny.23 mph72%30.00 "Hg10 mi
10:53 am81 °FPartly sunny.16 mph74%30.02 "Hg10 mi
9:53 am81 °FBroken clouds.18 mph74%30.03 "Hg10 mi
8:53 am80 °FBroken clouds.14 mph76%30.03 "Hg10 mi
7:53 am78 °FBroken clouds.14 mph82%30.02 "Hg10 mi
Weather by CustomWeather, © 2016

See weather overviewHow to use our weather pages